FW5449 Weather Reports


time (UTC)temp
C
wind
direction
speed
KPH
gust
KPH
rain 1hr
cm
rain 24hr
cm
rain mn
cm
humidity
%
barometer
mb
20260904132533 11 145 0.0 0.0 0.00 1.32 0.38 93 1009.4
20260904132027 11 145 0.0 0.0 0.00 1.32 0.38 92 1009.4
20260904131513 11 145 0.0 1.6 0.03 1.32 0.38 91 1009.4
20260904131013 11 145 0.0 3.2 0.03 1.32 0.38 91 1009.4
20260904130506 11 145 0.0 3.2 0.03 1.32 0.38 91 1009.2
20260904125953 11 145 1.6 6.4 0.03 1.32 0.38 91 1009.3
20260904125721 11 145 1.6 6.4 0.03 1.32 0.38 91 1009.2
20260904125439 11 141 1.6 4.8 0.03 1.32 0.38 91 1009.2
20260904124455 11 141 1.6 6.4 0.03 1.32 0.38 91 1009.2
20260904123952 11 138 1.6 6.4 0.03 1.32 0.38 91 1009.1
20260904123445 12 133 3.2 6.4 0.03 1.32 0.38 91 1009.1
20260904122945 12 145 4.8 6.4 0.03 1.32 0.38 90 1009.1
20260904122445 12 138 4.8 6.4 0.03 1.32 0.38 90 1009.1
20260904122210 12 137 3.2 6.4 0.03 1.32 0.38 91 1009.1
20260904121446 12 139 1.6 4.8 0.00 1.30 0.36 91 1009.1
20260904120945 12 145 0.0 4.8 0.00 1.30 0.36 92 1009.2
20260904120447 12 154 0.0 3.2 0.00 1.30 0.36 92 1009.1
20260904115935 12 142 0.0 4.8 0.00 1.30 0.36 92 1009.1
20260904115435 12 142 1.6 6.4 0.00 1.30 0.36 91 1009.0
20260904114930 12 142 3.2 8.0 0.00 1.30 0.36 91 1009.1
20260904114432 12 131 3.2 8.0 0.00 1.30 0.36 92 1009.1
20260904114149 12 134 1.6 4.8 0.00 1.30 0.36 92 1009.0
20260904113423 12 133 1.6 4.8 0.00 1.30 0.36 92 1008.9
20260904112921 12 134 1.6 4.8 0.00 1.30 0.36 92 1008.8
20260904112414 12 143 1.6 4.8 0.00 1.30 0.36 92 1008.8
20260904111912 12 139 1.6 4.8 0.00 1.30 0.36 92 1008.8
20260904111407 12 130 1.6 4.8 0.00 1.30 0.36 92 1008.8
20260904110853 12 154 0.0 4.8 0.00 1.30 0.36 92 1008.8
20260904110614 12 154 1.6 8.0 0.00 1.30 0.36 92 1008.8
20260904105853 12 108 0.0 8.0 0.00 1.30 0.36 92 1008.8
20260904105827 12 136 0.0 3.2 0.00 1.30 0.36 92 1008.7
20260904104837 12 114 1.6 6.4 0.00 1.30 0.36 92 1008.6
20260904104331 12 104 3.2 6.4 0.00 1.30 0.36 92 1008.6
20260904103831 12 135 3.2 8.0 0.00 1.30 0.36 92 1008.7
20260904103822 12 120 3.2 8.0 0.00 1.30 0.36 92 1008.7
20260904102829 12 148 1.6 6.4 0.00 1.30 0.36 92 1008.7
20260904102328 12 126 1.6 6.4 0.00 1.30 0.36 92 1008.7
20260904101826 12 141 0.0 6.4 0.00 1.30 0.36 92 1008.8
20260904101326 12 141 1.6 4.8 0.00 1.30 0.36 92 1008.7
20260904100823 12 141 0.0 4.8 0.00 1.30 0.36 92 1008.7
20260904100548 12 141 0.0 3.2 0.00 1.30 0.36 92 1008.7
20260904095815 12 141 0.0 3.2 0.00 1.30 0.36 92 1008.7
20260904095300 12 141 1.6 4.8 0.00 1.30 0.36 92 1008.6
20260904095003 12 141 3.2 6.4 0.00 1.30 0.36 92 1008.7
20260904094242 12 124 3.2 6.4 0.00 1.30 0.36 92 1008.8
20260904093735 12 149 3.2 9.7 0.00 1.30 0.36 92 1008.7
20260904093233 12 155 3.2 9.7 0.00 1.30 0.36 92 1008.7
20260904092734 12 143 4.8 11.3 0.00 1.30 0.36 92 1008.6
20260904092233 12 143 4.8 11.3 0.00 1.30 0.36 91 1008.7
20260904091815 12 143 4.8 16.1 0.00 1.30 0.36 91 1008.7
20260904091731 12 126 4.8 16.1 0.00 1.30 0.36 91 1008.6
20260904091503 12 129 6.4 16.1 0.00 1.30 0.36 91 1008.6
20260904090447 12 156 8.0 19.3 0.03 1.30 0.36 91 1008.6
20260904085723 12 118 8.0 19.3 0.03 1.30 0.36 91 1008.6
20260904085217 12 134 8.0 16.1 0.10 1.30 0.36 92 1008.7
20260904084716 12 147 8.0 16.1 0.15 1.30 0.36 92 1008.6
20260904084216 12 137 8.0 16.1 0.18 1.30 0.36 92 1008.6
20260904083716 12 154 8.0 16.1 0.20 1.30 0.36 92 1008.6
20260904083214 12 122 8.0 17.7 0.23 1.30 0.36 92 1008.4
20260904082713 12 112 8.0 17.7 0.28 1.30 0.36 92 1008.5
20260904082212 12 102 8.0 19.3 0.30 1.30 0.36 92 1008.5
20260904081716 12 121 8.0 19.3 0.36 1.30 0.36 93 1008.5
20260904081436 12 121 8.0 16.1 0.36 1.30 0.36 93 1008.6
20260904080711 12 93 8.0 16.1 0.36 1.30 0.36 93 1008.4
20260904080210 12 122 8.0 16.1 0.33 1.27 0.33 93 1008.5
20260904080156 12 96 6.4 14.5 0.33 1.27 0.33 93 1008.7
20260904075212 12 87 4.8 12.9 0.25 1.19 0.28 93 1008.7
20260904074710 12 87 3.2 9.7 0.20 1.14 0.23 92 1008.6
20260904074208 12 108 1.6 6.4 0.18 1.12 0.18 92 1008.9
20260904073706 12 128 1.6 4.8 0.18 1.09 0.15 92 1008.9
20260904073205 12 144 1.6 9.7 0.15 1.07 0.13 92 1008.9
20260904072706 12 159 3.2 9.7 0.10 1.02 0.08 91 1008.9
20260904072209 12 154 6.4 12.9 0.08 0.99 0.05 90 1008.9
20260904071703 12 168 6.4 12.9 0.03 0.94 0.00 89 1008.6
20260904071202 12 128 6.4 16.1 0.03 0.94 0.00 89 1008.6
20260904070703 12 126 6.4 16.1 0.05 0.94 0.00 90 1008.5
20260904070203 12 123 6.4 14.5 0.05 0.94 0.00 90 1008.3
20260904065921 12 118 6.4 14.5 0.05 0.94 0.94 90 1008.3
20260904065201 12 115 4.8 14.5 0.05 0.94 0.94 90 1008.3
20260904064700 12 131 4.8 12.9 0.05 0.94 0.94 90 1008.3
20260904064159 12 134 3.2 12.9 0.08 0.94 0.94 91 1008.2
20260904064149 12 131 3.2 8.0 0.05 0.91 0.91 91 1008.3
20260904063416 12 101 4.8 11.3 0.05 0.91 0.91 91 1008.3
20260904063252 12 145 3.2 11.3 0.05 0.91 0.91 91 1008.4
20260904062200 12 95 4.8 11.3 0.08 0.91 0.91 91 1008.3
20260904061657 12 104 4.8 11.3 0.10 0.91 0.91 91 1008.2
20260904061159 12 104 4.8 12.9 0.10 0.91 0.91 91 1008.2
20260904060652 12 82 4.8 12.9 0.10 0.89 0.89 91 1008.4
20260904060411 12 106 4.8 12.9 0.13 0.89 0.89 91 1008.4
20260904055650 12 103 4.8 9.7 0.13 0.89 0.89 91 1008.4
20260904055144 12 91 3.2 9.7 0.13 0.89 0.89 92 1008.5
20260904054640 12 76 1.6 8.0 0.15 0.89 0.89 92 1008.5
20260904054633 12 83 3.2 11.3 0.13 0.86 0.86 92 1008.5
20260904053641 12 79 3.2 14.5 0.13 0.86 0.86 92 1008.6
20260904053130 12 104 3.2 14.5 0.13 0.86 0.86 92 1008.7
20260904052611 12 109 1.6 6.4 0.10 0.84 0.84 92 1008.7
20260904052112 12 99 0.0 3.2 0.10 0.84 0.84 92 1008.8
20260904051606 12 172 0.0 1.6 0.08 0.81 0.81 92 1008.8
20260904051056 13 172 0.0 4.8 0.08 0.81 0.81 92 1009.0
20260904050820 13 174 1.6 6.4 0.05 0.79 0.79 91 1009.0
20260904050050 13 137 3.2 6.4 0.03 0.76 0.76 91 1009.0
20260904045550 13 128 3.2 8.0 0.03 0.76 0.76 91 1009.0
20260904045048 13 125 3.2 8.0 0.03 0.76 0.76 91 1008.9
20260904044549 13 84 3.2 8.0 0.00 0.74 0.74 90 1008.9
20260904044046 13 124 4.8 9.7 0.00 0.74 0.74 90 1008.9
20260904043548 13 165 4.8 9.7 0.00 0.74 0.74 90 1008.9
20260904043046 13 141 4.8 9.7 0.00 0.74 0.74 90 1008.8
20260904042545 13 80 4.8 11.3 0.00 0.74 0.74 90 1008.8
20260904042045 13 137 4.8 11.3 0.03 0.74 0.74 90 1008.8
20260904041806 13 139 4.8 9.7 0.03 0.74 0.74 90 1008.9
20260904041043 13 141 4.8 16.1 0.03 0.74 0.74 90 1008.9
20260904040542 13 126 4.8 16.1 0.03 0.74 0.74 90 1008.9
20260904040042 13 106 3.2 8.0 0.03 0.74 0.74 89 1009.0
20260904035544 13 108 4.8 8.0 0.03 0.74 0.74 89 1008.9
20260904035044 13 126 3.2 8.0 0.03 0.74 0.74 90 1008.9
20260904034544 13 128 3.2 8.0 0.03 0.74 0.74 90 1008.9
20260904034038 13 107 3.2 8.0 0.03 0.74 0.74 90 1008.8
20260904033540 13 123 3.2 8.0 0.03 0.74 0.74 90 1008.9
20260904033036 13 127 3.2 8.0 0.03 0.74 0.74 90 1008.7
20260904032538 13 134 1.6 8.0 0.03 0.74 0.74 90 1008.8
20260904032036 13 112 1.6 8.0 0.00 0.71 0.71 90 1008.8
20260904031538 13 147 3.2 8.0 0.00 0.71 0.71 90 1008.8
20260904031033 13 126 3.2 9.7 0.00 0.71 0.71 90 1008.7
20260904030534 13 120 3.2 9.7 0.00 0.71 0.71 90 1008.7
20260904030033 13 118 3.2 8.0 0.00 0.71 0.71 90 1008.7
20260904025531 13 91 3.2 6.4 0.00 0.71 0.71 90 1008.6
20260904025031 13 108 3.2 4.8 0.00 0.71 0.71 90 1008.7
20260904024530 13 118 1.6 4.8 0.00 0.71 0.71 90 1008.7
20260904024029 13 101 1.6 6.4 0.00 0.71 0.71 90 1008.6
20260904023754 13 121 1.6 6.4 0.00 0.71 0.71 89 1008.6
20260904023247 13 120 1.6 8.0 0.03 0.71 0.71 89 1008.6
20260904022520 13 116 3.2 8.0 0.03 0.71 0.71 89 1008.6
20260904022236 13 126 3.2 12.9 0.03 0.71 0.71 89 1008.5
20260904021512 13 132 6.4 12.9 0.08 0.71 0.71 89 1008.5
20260904021007 13 136 8.0 12.9 0.10 0.71 0.71 89 1008.7
20260904020725 13 129 8.0 12.9 0.13 0.71 0.71 89 1008.7
20260904020226 13 120 6.4 12.9 0.13 0.71 0.71 89 1008.7
20260904015457 13 148 6.4 14.5 0.18 0.71 0.71 89 1008.8
20260904014956 13 160 6.4 14.5 0.20 0.71 0.71 89 1008.8
20260904014455 13 134 4.8 9.7 0.20 0.71 0.71 89 1008.8
20260904013952 13 101 4.8 8.0 0.23 0.71 0.71 91 1008.8
20260904013454 13 129 4.8 9.7 0.23 0.71 0.71 91 1008.9
20260904012952 13 118 3.2 9.7 0.20 0.69 0.71 91 1008.9
20260904012452 13 140 3.2 6.4 0.20 0.69 0.69 91 1008.8
20260904011951 13 136 3.2 6.4 0.20 0.69 0.69 90 1008.9
20260904011449 13 131 1.6 6.4 0.15 0.64 0.64 90 1009.1
20260904010951 13 155 1.6 4.8 0.13 0.61 0.61 90 1009.0
20260904010443 13 169 3.2 6.4 0.10 0.58 0.58 89 1009.1
20260904005940 14 193 4.8 11.3 0.10 0.58 0.58 88 1009.0
20260904005439 14 151 6.4 12.9 0.05 0.53 0.53 86 1009.0
20260904004940 14 142 9.7 19.3 0.03 0.51 0.51 85 1008.8
20260904004708 15 156 12.9 19.3 0.03 0.51 0.51 83 1008.7
20260904003939 15 119 11.3 19.3 0.00 0.48 0.48 82 1008.8
20260904003656 15 131 9.7 19.3 0.00 0.48 0.48 82 1008.9
20260904002938 15 143 8.0 16.1 0.00 0.48 0.48 81 1008.9
20260904002438 15 138 9.7 16.1 0.00 0.48 0.48 80 1008.9
20260904002156 15 158 11.3 17.7 0.00 0.48 0.48 80 1008.8
20260904001430 15 141 12.9 22.5 0.00 0.48 0.48 80 1008.8
20260904000930 15 143 12.9 22.5 0.00 0.51 0.48 79 1008.8
20260904000432 15 142 11.3 19.3 0.00 0.51 0.48 80 1008.8
20260903235923 15 110 11.3 19.3 0.00 0.56 0.48 80 1008.8
20260903235424 15 133 11.3 19.3 0.00 0.61 0.48 80 1008.9
20260903234923 15 125 11.3 17.7 0.00 0.66 0.48 81 1008.9
20260903234419 15 126 11.3 19.3 0.00 0.69 0.48 81 1008.8
20260903233917 15 149 9.7 19.3 0.00 0.76 0.48 81 1008.8
20260903233416 15 136 8.0 19.3 0.00 0.89 0.48 82 1008.9
20260903232909 15 145 6.4 12.9 0.00 0.94 0.48 82 1008.9
20260903232410 15 176 6.4 11.3 0.00 1.04 0.48 82 1009.0
20260903231909 15 159 6.4 12.9 0.00 1.04 0.48 82 1009.0
20260903231407 15 157 8.0 14.5 0.00 1.04 0.48 81 1009.0
20260903231130 15 124 9.7 16.1 0.00 1.07 0.48 81 1009.0
20260903230404 15 129 9.7 17.7 0.00 1.07 0.48 81 1009.1
20260903225903 15 126 9.7 17.7 0.00 1.09 0.48 81 1009.3
20260903225403 15 118 11.3 17.7 0.13 1.09 0.48 81 1009.2
20260903224902 15 149 11.3 17.7 0.18 1.09 0.48 81 1009.3
20260903224401 15 156 11.3 17.7 0.38 1.09 0.48 83 1009.4
20260903223859 14 140 11.3 17.7 0.46 1.09 0.48 83 1009.5
20260903223401 14 129 9.7 17.7 0.48 1.09 0.48 84 1009.5
20260903222858 14 142 9.7 17.7 0.48 1.09 0.48 86 1009.5
20260903222359 14 143 8.0 16.1 0.48 1.09 0.48 84 1009.5
20260903221856 14 143 4.8 16.1 0.48 1.09 0.48 86 1009.5
20260903221359 13 143 8.0 27.4 0.48 1.12 0.48 85 1009.5
20260903220856 13 158 14.5 27.4 0.48 1.12 0.48 85 1009.6
20260903220355 13 172 14.5 24.1 0.48 1.12 0.48 86 1009.8
20260903215853 13 139 16.1 29.0 0.46 1.09 0.48 88 1010.0
20260903215842 13 170 14.5 29.0 0.36 1.04 0.38 88 1009.9
20260903214853 14 254 4.8 24.1 0.28 0.97 0.28 84 1009.6
20260903214351 15 234 6.4 25.7 0.10 0.79 0.10 81 1009.4
20260903213851 16 245 14.5 25.7 0.03 0.71 0.05 75 1009.3
20260903213842 17 272 14.5 24.1 0.00 0.69 0.03 70 1009.0
20260903212849 18 281 11.3 24.1 0.00 0.69 0.00 62 1008.9
20260903212615 18 187 8.0 17.7 0.00 0.71 0.00 61 1008.8
20260903211848 18 233 8.0 17.7 0.00 0.76 0.00 61 1008.9
20260903211349 18 231 9.7 19.3 0.00 0.79 0.00 62 1008.9
20260903210847 18 178 11.3 22.5 0.00 0.79 0.00 61 1008.8
20260903210346 18 193 11.3 22.5 0.00 0.79 0.00 62 1008.9
20260903205845 18 207 14.5 25.7 0.00 0.79 0.00 62 1008.8
20260903205344 18 193 17.7 32.2 0.00 0.79 0.00 60 1008.8
20260903204845 18 199 16.1 32.2 0.00 0.79 0.00 61 1008.8
20260903204343 18 156 14.5 27.4 0.00 0.79 0.00 60 1008.8
20260903204105 18 218 14.5 29.0 0.00 0.79 0.00 63 1008.9
20260903203342 18 172 17.7 29.0 0.00 0.81 0.00 63 1009.0
20260903202843 18 177 17.7 32.2 0.00 0.81 0.00 62 1009.1
20260903202341 18 173 17.7 32.2 0.00 0.81 0.00 62 1009.0
20260903201842 18 185 17.7 32.2 0.00 0.81 0.00 60 1009.1
20260903201342 18 172 17.7 30.6 0.00 0.81 0.00 62 1009.1
20260903201100 18 145 19.3 35.4 0.00 0.81 0.00 62 1009.0
20260903200337 18 179 17.7 35.4 0.00 0.81 0.00 62 1009.2
20260903195835 18 172 17.7 35.4 0.00 0.81 0.00 64 1009.3
20260903195331 18 260 17.7 33.8 0.00 0.81 0.00 66 1009.1
20260903194829 19 161 16.1 35.4 0.00 0.81 0.00 62 1009.2
20260903194329 19 162 14.5 35.4 0.00 0.81 0.00 67 1009.3
20260903194305 18 183 14.5 24.1 0.00 0.81 0.00 67 1009.3
20260903193326 17 155 14.5 24.1 0.00 0.81 0.00 68 1009.5
20260903192820 17 190 14.5 30.6 0.00 0.81 0.00 70 1009.5
20260903192317 17 197 14.5 30.6 0.00 0.81 0.00 70 1009.6
20260903192034 17 203 14.5 29.0 0.00 0.81 0.00 71 1009.6
20260903191315 16 234 14.5 29.0 0.00 0.81 0.00 73 1009.8
20260903190810 16 197 16.1 27.4 0.00 0.81 0.00 73 1009.9
20260903190310 16 178 17.7 30.6 0.00 0.84 0.00 74 1010.1
20260903185810 16 159 16.1 30.6 0.00 0.84 0.00 74 1010.0
20260903185530 16 194 14.5 25.7 0.00 0.84 0.00 74 1010.0
20260903184808 16 160 14.5 29.0 0.00 0.84 0.00 76 1010.0
20260903184307 15 146 16.1 29.0 0.00 0.84 0.00 76 1010.0
20260903183806 15 173 16.1 29.0 0.00 0.86 0.00 76 1010.1
20260903183305 15 145 14.5 29.0 0.00 0.86 0.00 75 1010.1
20260903182804 15 157 12.9 22.5 0.00 0.86 0.00 76 1010.1
20260903182306 15 183 12.9 22.5 0.00 0.86 0.00 77 1010.1
20260903181805 15 165 12.9 22.5 0.00 0.86 0.00 77 1010.0
20260903181302 15 135 12.9 22.5 0.00 0.86 0.00 77 1010.0
20260903180801 15 149 16.1 25.7 0.00 0.86 0.00 78 1010.0
20260903180305 15 181 14.5 25.7 0.00 0.89 0.00 77 1010.0
20260903175801 15 164 14.5 24.1 0.00 0.89 0.00 78 1010.0
20260903175300 15 148 12.9 24.1 0.00 0.89 0.00 77 1010.0
20260903174800 15 174 11.3 20.9 0.00 0.89 0.00 77 1010.0
20260903174258 15 205 9.7 19.3 0.00 0.89 0.00 77 1010.0
20260903174027 15 175 9.7 22.5 0.00 0.89 0.00 77 1010.0
20260903173522 15 191 11.3 22.5 0.00 0.91 0.00 77 1009.9
20260903173019 15 152 9.7 19.3 0.00 0.97 0.00 77 1009.8
20260903172524 15 164 11.3 25.7 0.00 0.99 0.00 77 1009.9
20260903171754 15 180 11.3 25.7 0.00 1.02 0.00 78 1009.8
20260903171254 15 155 11.3 22.5 0.00 1.07 0.00 79 1009.8
20260903170753 15 163 11.3 25.7 0.00 1.14 0.00 78 1009.8
20260903170254 15 158 12.9 25.7 0.00 1.19 0.00 77 1009.7
20260903165751 15 164 12.9 20.9 0.00 1.22 0.00 78 1009.7
20260903165518 14 154 12.9 24.1 0.00 1.24 0.00 79 1009.8
20260903164752 14 164 12.9 24.1 0.00 1.27 0.00 79 1009.8
20260903164249 14 174 11.3 22.5 0.00 1.27 0.00 80 1009.9
20260903164013 14 153 11.3 22.5 0.00 1.27 0.00 81 1009.9
20260903163248 14 163 9.7 19.3 0.00 1.27 0.00 82 1009.9
20260903162749 14 174 9.7 19.3 0.00 1.27 0.00 82 1009.9
20260903162240 14 151 9.7 20.9 0.00 1.27 0.00 83 1009.9
20260903161740 14 184 9.7 20.9 0.00 1.30 0.00 83 1010.0
20260903161241 13 128 11.3 22.5 0.00 1.30 0.00 84 1010.0
20260903160950 13 135 11.3 19.3 0.00 1.30 0.00 84 1010.1
20260903160832 13 164 12.9 22.5 0.00 1.30 0.00 84 1010.0
20260903155737 13 176 9.7 17.7 0.00 1.32 0.00 84 1010.1
20260903155236 13 172 9.7 17.7 0.00 1.35 0.00 85 1010.3
20260903154737 13 187 9.7 17.7 0.00 1.37 0.00 85 1010.2
20260903154233 13 145 11.3 24.1 0.00 1.37 0.00 85 1010.2
20260903153731 13 172 12.9 24.1 0.00 1.37 0.00 85 1010.2
20260903153231 13 169 11.3 19.3 0.00 1.37 0.00 85 1010.3
20260903152723 13 203 9.7 17.7 0.00 1.37 0.00 86 1010.3
20260903152223 13 167 9.7 17.7 0.00 1.37 0.00 86 1010.2
20260903151724 13 137 8.0 16.1 0.00 1.37 0.00 85 1010.3
20260903151217 13 142 8.0 16.1 0.00 1.37 0.00 86 1010.1
20260903150720 13 154 6.4 16.1 0.00 1.37 0.00 86 1010.2
20260903150217 13 153 4.8 11.3 0.00 1.37 0.00 87 1010.2
20260903145719 12 160 4.8 11.3 0.00 1.37 0.00 87 1010.1
20260903145217 12 172 4.8 11.3 0.00 1.37 0.00 87 1010.1
20260903144718 12 145 6.4 14.5 0.00 1.37 0.00 87 1010.1
20260903144216 12 163 6.4 14.5 0.00 1.37 0.00 87 1010.2
20260903143712 12 170 6.4 12.9 0.00 1.37 0.00 87 1010.2
20260903143211 12 168 8.0 12.9 0.00 1.37 0.00 87 1010.3
20260903142711 12 197 8.0 16.1 0.00 1.37 0.00 87 1010.3
20260903142211 12 163 8.0 16.1 0.00 1.37 0.00 87 1010.2
20260903141710 12 146 6.4 14.5 0.00 1.37 0.00 87 1010.1
20260903141211 12 158 6.4 12.9 0.00 1.37 0.00 87 1010.0
20260903140709 12 170 8.0 19.3 0.00 1.37 0.00 87 1010.0
20260903140219 12 174 11.3 20.9 0.00 1.37 0.00 87 1009.9
20260903140209 12 166 9.7 19.3 0.00 1.37 0.00 87 1010.0
20260903135206 12 168 12.9 25.7 0.00 1.37 0.00 87 1009.8
20260903134708 12 153 12.9 25.7 0.00 1.37 0.00 87 1009.8
20260903134205 12 159 12.9 22.5 0.00 1.37 0.00 88 1009.8
20260903133924 12 149 12.9 20.9 0.00 1.37 0.00 88 1009.6
20260903133206 12 201 11.3 19.3 0.00 1.37 0.00 88 1009.6